TimeCDT,TemperatureF,Dew PointF,Humidity,Sea Level PressureIn,VisibilityMPH,Wind Direction,Wind SpeedMPH,Gust SpeedMPH,PrecipitationIn,Events,Conditions,WindDirDegrees,DateUTC
12:15 AM,46.4,35.6,66,30.31,10.0,NNE,8.1,-,N/A,,Overcast,30,2012-10-07 05:15:00
12:35 AM,46.4,33.8,62,30.31,10.0,NNE,9.2,-,N/A,,Overcast,20,2012-10-07 05:35:00
12:55 AM,46.4,33.8,62,30.30,10.0,NNE,10.4,-,N/A,,Overcast,30,2012-10-07 05:55:00
1:15 AM,46.4,33.8,62,30.31,10.0,NNE,10.4,17.3,N/A,,Overcast,20,2012-10-07 06:15:00
1:35 AM,46.4,33.8,62,30.31,10.0,NNE,10.4,-,N/A,,Overcast,20,2012-10-07 06:35:00
1:55 AM,46.4,33.8,62,30.31,10.0,NNE,9.2,-,N/A,,Overcast,20,2012-10-07 06:55:00
2:15 AM,46.4,35.6,66,30.31,10.0,North,9.2,-,N/A,,Mostly Cloudy,10,2012-10-07 07:15:00
2:35 AM,44.6,35.6,71,30.31,10.0,North,6.9,-,N/A,,Scattered Clouds,10,2012-10-07 07:35:00
2:55 AM,44.6,35.6,71,30.31,10.0,North,5.8,-,N/A,,Clear,360,2012-10-07 07:55:00
3:15 AM,44.6,35.6,71,30.31,10.0,North,10.4,-,N/A,,Clear,360,2012-10-07 08:15:00
3:35 AM,44.6,33.8,66,30.31,10.0,North,8.1,-,N/A,,Scattered Clouds,10,2012-10-07 08:35:00
3:55 AM,44.6,33.8,66,30.31,10.0,North,8.1,-,N/A,,Scattered Clouds,10,2012-10-07 08:55:00
4:15 AM,44.6,33.8,66,30.31,10.0,North,6.9,-,N/A,,Clear,360,2012-10-07 09:15:00
4:35 AM,44.6,33.8,66,30.29,10.0,NE,9.2,-,N/A,,Clear,40,2012-10-07 09:35:00
4:55 AM,44.6,33.8,66,30.31,10.0,North,8.1,-,N/A,,Clear,10,2012-10-07 09:55:00
5:15 AM,44.6,33.8,66,30.31,10.0,North,10.4,-,N/A,,Clear,360,2012-10-07 10:15:00
5:35 AM,44.6,33.8,66,30.28,10.0,NNE,9.2,-,N/A,,Clear,30,2012-10-07 10:35:00
5:55 AM,44.6,33.8,66,30.32,10.0,North,5.8,-,N/A,,Clear,350,2012-10-07 10:55:00
6:15 AM,42.8,33.8,70,30.32,10.0,North,5.8,-,N/A,,Clear,360,2012-10-07 11:15:00
6:35 AM,42.8,33.8,70,30.31,10.0,NNE,4.6,-,N/A,,Clear,30,2012-10-07 11:35:00
7:55 AM,42.8,33.8,70,30.32,10.0,North,5.8,-,N/A,,Clear,350,2012-10-07 12:55:00
10:55 AM,50.0,30.2,47,30.34,10.0,North,3.5,-,N/A,,Clear,10,2012-10-07 15:55:00
11:35 PM,41.0,35.6,81,30.24,10.0,Calm,Calm,-,N/A,,Clear,0,2012-10-08 04:35:00
11:55 PM,41.0,35.6,81,30.24,7.0,Calm,Calm,-,N/A,,Clear,0,2012-10-08 04:55:00